Lid_Strength_Index
4 4 3 4 3 3 3 4 4 4 4 4 5 6 6 7 8 8 8 8 8 9 8 8 7 7 8 7 5 5 6 6 9 8 7 7 7 8 7 6 5 4 4
3 3 4 3 4 3 4 4 4 5 5 6 7 7 7 7 8 8 8 8 9 9 9 8 8 6 6 5 6 6 6 7 8 10 9 8 8 7 7 8 6 5 5
4 4 4 5 4 4 4 5 6 6 8 8 8 7 7 8 8 9 9 9 9 9 9 9 8 6 6 6 7 7 7 8 10 10 10 8 8 8 8 8 8 8 6
4 4 5 5 6 6 6 7 7 7 8 8 8 7 8 8 9 9 9 10 10 9 9 8 6 6 6 6 7 8 9 9 9 10 9 9 8 8 8 9 9 8 7
4 5 6 7 8 8 8 8 8 8 8 8 8 8 9 9 9 9 10 10 10 10 9 8 6 5 6 6 7 8 8 9 9 9 9 8 9 9 9 8 8 7 8
7 9 9 9 9 8 8 8 9 10 10 9 9 9 9 8 9 7 8 11 10 10 10 9 8 6 6 5 5 6 7 10 10 10 9 10 9 9 8 8 8 8 9
9 9 9 9 9 9 9 10 11 11 11 10 10 9 9 10 9 9 8 11 11 11 10 10 9 8 6 7 8 7 8 8 8 8 9 9 9 8 8 8 8 8 8
10 9 9 9 10 10 11 11 12 12 12 12 11 10 8 8 9 9 9 11 11 11 11 11 11 9 8 9 9 9 9 9 8 7 8 8 8 8 7 8 8 8 8
11 10 10 10 11 11 12 12 12 12 12 9 8 8 10 10 10 10 11 12 12 12 11 11 10 9 9 10 9 10 9 8 7 8 8 8 8 8 8 8 9 10 10
10 10 10 10 11 11 12 12 12 10 9 9 11 9 9 12 11 11 11 12 13 13 12 11 9 9 10 11 11 11 10 9 10 9 9 8 8 7 8 8 8 10 10
10 11 12 12 12 12 13 13 13 13 13 13 13 13 12 11 13 11 11 13 13 13 13 12 11 10 11 11 11 10 10 9 10 10 9 9 8 8 7 7 7 8 9
12 12 12 13 12 12 13 14 14 14 14 14 14 14 13 12 11 11 11 12 12 14 13 12 12 10 12 11 11 10 10 10 10 10 10 10 10 9 8 7 6 6 6
13 14 13 13 13 13 13 14 15 14 15 15 15 15 15 14 13 12 12 12 12 12 12 11 10 11 11 11 10 9 10 10 10 11 11 11 11 9 7 7 6 6 6
13 14 13 13 13 13 13 13 14 14 15 15 14 15 14 13 13 13 13 12 10 12 11 13 11 11 11 10 10 10 10 10 10 11 12 11 10 10 9 8 7 7 7
13 12 12 12 12 12 11 13 13 13 12 13 13 13 14 14 13 12 12 12 12 11 11 12 13 12 13 11 11 11 11 11 11 11 12 12 12 11 9 8 7 7 8
12 12 12 12 13 13 14 14 11 11 12 12 12 12 12 12 12 11 11 11 11 12 13 14 13 14 13 12 12 13 12 11 11 12 13 13 12 11 10 9 7 8 8
14 14 14 13 14 14 13 13 14 12 11 11 11 12 12 12 11 11 11 11 12 12 13 14 14 13 13 12 13 13 13 11 12 13 13 13 13 11 11 10 8 8 8
14 12 16 15 15 15 15 13 12 13 14 13 12 12 12 11 11 11 12 12 13 12 13 13 13 13 13 13 13 13 12 12 14 14 14 14 13 12 12 11 10 8 8
14 14 15 15 15 14 15 15 15 14 14 15 14 14 13 12 11 12 12 13 14 14 13 12 12 13 12 13 14 14 13 14 14 15 14 14 14 13 12 11 10 11 9
14 12 13 15 15 15 15 15 16 16 16 16 16 16 15 15 15 15 14 14 13 14 12 11 12 12 12 14 15 14 14 15 15 15 15 14 14 13 12 10 10 6 7
14 14 15 14 14 14 15 16 16 16 16 16 16 14 14 16 16 16 15 14 14 13 11 11 13 12 13 15 15 15 15 15 16 16 16 15 14 13 11 10 8 5 6
14 14 13 14 14 14 15 15 15 16 15 16 16 15 14 15 15 15 15 14 13 12 11 12 14 13 13 15 16 15 16 16 16 16 16 15 14 12 9 8 6 5 6
13 13 14 14 14 14 15 15 15 15 15 16 16 15 15 15 15 14 14 13 13 12 12 12 14 15 14 15 16 15 16 16 16 16 16 15 13 12 10 7 5 5 6
13 13 14 14 14 15 15 15 15 15 15 16 16 15 15 15 14 14 13 13 13 13 13 13 13 15 15 16 16 15 15 15 15 15 15 14 13 12 10 9 5 6 7
13 13 14 14 14 15 15 15 16 16 15 15 15 15 15 15 14 14 13 13 14 13 13 13 14 14 15 15 16 16 15 15 15 15 15 13 13 12 12 10 7 7 8
13 13 14 14 15 15 16 16 16 16 16 15 16 16 15 15 15 14 14 14 14 14 14 14 14 14 14 15 15 16 16 15 15 15 14 14 13 13 13 10 9 7 7